Tiempo cada hora Muravli

Hoy, 20 Octubre, Martes

Tiempo Temperatura Precipitaciones Viento Presión Humedad
00:00 +7°C° 0 mm 2 mps 757 mmHg 63%
01:00 +7°C° 0.1 mm 2 mps 757 mmHg 63%
02:00 +7°C° 0.1 mm 2 mps 758 mmHg 64%
03:00 +7°C° 0 mm 2 mps 758 mmHg 64%
04:00 +7°C° 0.2 mm 3 mps 758 mmHg 67%
05:00 +5°C° 0.2 mm 3 mps 758 mmHg 70%
06:00 +5°C° 0.2 mm 3 mps 758 mmHg 74%
07:00 +7°C° 0 mm 3 mps 758 mmHg 69%
08:00 +7°C° 0 mm 4 mps 758 mmHg 65%
09:00 +8°C° 0 mm 4 mps 758 mmHg 60%
10:00 +9°C° 0 mm 5 mps 758 mmHg 55%
11:00 +9°C° 0 mm 5 mps 758 mmHg 49%
12:00 +10°C° 0 mm 6 mps 758 mmHg 44%
13:00 +10°C° 0 mm 6 mps 758 mmHg 41%
14:00 +10°C° 0 mm 6 mps 758 mmHg 38%
15:00 +10°C° 0 mm 6 mps 758 mmHg 34%
16:00 +8°C° 0 mm 5 mps 758 mmHg 37%
17:00 +7°C° 0 mm 4 mps 758 mmHg 40%
18:00 +7°C° 0 mm 3 mps 758 mmHg 43%
19:00 +5°C° 0 mm 4 mps 758 mmHg 43%
20:00 +5°C° 0 mm 4 mps 758 mmHg 43%
21:00 +5°C° 0 mm 4 mps 759 mmHg 43%
22:00 +4°C° 0 mm 4 mps 758 mmHg 45%
23:00 +4°C° 0 mm 4 mps 758 mmHg 46%

Mañana, 21 Octubre, Miércoles

Tiempo Temperatura Precipitaciones Viento Presión Humedad
00:00 +4°C° 0 mm 4 mps 758 mmHg 48%
01:00 +3°C° 0 mm 4 mps 758 mmHg 51%
02:00 +3°C° 0 mm 4 mps 758 mmHg 55%
03:00 +1°C° 0 mm 4 mps 758 mmHg 58%
04:00 +1°C° 0 mm 4 mps 758 mmHg 64%
05:00 +1°C° 0 mm 4 mps 758 mmHg 69%
06:00 0°C° 0 mm 4 mps 759 mmHg 74%
07:00 +1°C° 0 mm 5 mps 759 mmHg 70%
08:00 +2°C° 0 mm 5 mps 759 mmHg 66%
09:00 +3°C° 0 mm 6 mps 759 mmHg 61%
10:00 +4°C° 0 mm 6 mps 759 mmHg 57%
11:00 +4°C° 0 mm 6 mps 759 mmHg 53%
12:00 +5°C° 0 mm 7 mps 759 mmHg 48%
13:00 +5°C° 0 mm 7 mps 760 mmHg 49%
14:00 +4°C° 0 mm 7 mps 760 mmHg 50%
15:00 +4°C° 0 mm 7 mps 760 mmHg 51%
16:00 +3°C° 0 mm 6 mps 760 mmHg 52%
17:00 +2°C° 0 mm 6 mps 760 mmHg 53%
18:00 +2°C° 0 mm 5 mps 760 mmHg 54%
19:00 +1°C° 0 mm 4 mps 761 mmHg 57%
20:00 0°C° 0 mm 4 mps 761 mmHg 60%
21:00 0°C° 0 mm 3 mps 761 mmHg 63%
22:00 0°C° 0 mm 3 mps 761 mmHg 65%
23:00 0°C° 0 mm 3 mps 761 mmHg 67%

Pasado mañana, 22 Octubre, Jueves

Tiempo Temperatura Precipitaciones Viento Presión Humedad
00:00 -1°C° 0 mm 3 mps 761 mmHg 68%
01:00 -1°C° 0 mm 3 mps 761 mmHg 71%
02:00 -1°C° 0 mm 3 mps 761 mmHg 74%
03:00 -2°C° 0 mm 3 mps 762 mmHg 77%
04:00 -2°C° 0 mm 3 mps 762 mmHg 79%
05:00 -2°C° 0 mm 3 mps 762 mmHg 81%
06:00 -4°C° 0 mm 3 mps 762 mmHg 83%
07:00 -1°C° 0 mm 3 mps 762 mmHg 77%
08:00 0°C° 0 mm 3 mps 762 mmHg 71%
09:00 +1°C° 0 mm 3 mps 763 mmHg 64%
10:00 +2°C° 0 mm 3 mps 762 mmHg 59%
11:00 +3°C° 0 mm 3 mps 762 mmHg 54%
12:00 +4°C° 0 mm 3 mps 762 mmHg 49%
13:00 +4°C° 0 mm 3 mps 762 mmHg 47%
14:00 +4°C° 0 mm 3 mps 762 mmHg 45%
15:00 +5°C° 0 mm 3 mps 762 mmHg 44%
16:00 +4°C° 0 mm 2 mps 762 mmHg 48%
17:00 +3°C° 0 mm 2 mps 762 mmHg 53%
18:00 +3°C° 0 mm 1 mps 762 mmHg 57%
19:00 +3°C° 0 mm 1 mps 762 mmHg 59%
20:00 +3°C° 0 mm 1 mps 762 mmHg 61%
21:00 +2°C° 0 mm 2 mps 762 mmHg 62%
22:00 +2°C° 0 mm 2 mps 762 mmHg 64%
23:00 +3°C° 0 mm 1 mps 762 mmHg 65%

23 Octubre, Viernes

Tiempo Temperatura Precipitaciones Viento Presión Humedad
00:00 +3°C° 0 mm 1 mps 762 mmHg 67%
01:00 +2°C° 0 mm 2 mps 762 mmHg 70%
02:00 +2°C° 0 mm 2 mps 761 mmHg 72%
03:00 +1°C° 0 mm 2 mps 761 mmHg 75%
04:00 +1°C° 0 mm 2 mps 761 mmHg 78%
05:00 +1°C° 0 mm 2 mps 761 mmHg 82%
06:00 +1°C° 0 mm 2 mps 760 mmHg 85%
07:00 +1°C° 0 mm 3 mps 760 mmHg 82%
08:00 +3°C° 0 mm 4 mps 760 mmHg 79%
09:00 +3°C° 0 mm 5 mps 760 mmHg 76%
10:00 +3°C° 0.2 mm 5 mps 759 mmHg 79%
11:00 +3°C° 0.2 mm 5 mps 759 mmHg 83%
12:00 +2°C° 0.2 mm 6 mps 758 mmHg 86%
13:00 +3°C° 0.8 mm 5 mps 758 mmHg 88%
14:00 +3°C° 0.8 mm 5 mps 758 mmHg 89%
15:00 +3°C° 0.8 mm 5 mps 757 mmHg 91%
16:00 +3°C° 0.2 mm 5 mps 757 mmHg 91%
17:00 +4°C° 0.2 mm 4 mps 757 mmHg 91%
18:00 +4°C° 0.2 mm 3 mps 757 mmHg 91%
19:00 +4°C° 0 mm 3 mps 757 mmHg 91%
20:00 +4°C° 0 mm 3 mps 757 mmHg 90%
21:00 +4°C° 0 mm 3 mps 757 mmHg 90%
22:00 +4°C° 0 mm 3 mps 756 mmHg 91%
23:00 +4°C° 0 mm 3 mps 756 mmHg 91%

24 Octubre, Sábado

Tiempo Temperatura Precipitaciones Viento Presión Humedad
00:00 +4°C° 0 mm 3 mps 756 mmHg 92%
01:00 +4°C° 0 mm 3 mps 756 mmHg 92%
02:00 +4°C° 0 mm 3 mps 755 mmHg 92%
03:00 +5°C° 0 mm 3 mps 755 mmHg 93%
04:00 +5°C° 0 mm 4 mps 754 mmHg 91%
05:00 +6°C° 0 mm 4 mps 754 mmHg 90%
06:00 +7°C° 0 mm 5 mps 753 mmHg 88%
07:00 +8°C° 1.3 mm 5 mps 753 mmHg 90%
08:00 +8°C° 1.3 mm 6 mps 752 mmHg 91%
09:00 +9°C° 1.3 mm 6 mps 752 mmHg 93%
10:00 +10°C° 0.1 mm 7 mps 752 mmHg 84%
11:00 +11°C° 0.1 mm 7 mps 752 mmHg 75%
12:00 +12°C° 0.1 mm 7 mps 752 mmHg 66%
13:00 +14°C° 0 mm 7 mps 752 mmHg 67%
14:00 +14°C° 0 mm 6 mps 752 mmHg 68%
15:00 +14°C° 0 mm 5 mps 752 mmHg 69%
16:00 +13°C° 0 mm 5 mps 753 mmHg 70%
17:00 +13°C° 0 mm 5 mps 754 mmHg 72%
18:00 +12°C° 0 mm 5 mps 754 mmHg 73%
19:00 +10°C° 0 mm 5 mps 755 mmHg 75%
20:00 +10°C° 0 mm 4 mps 755 mmHg 77%
21:00 +8°C° 0 mm 4 mps 755 mmHg 80%
22:00 +9°C° 0 mm 3 mps 756 mmHg 82%
23:00 +8°C° 0 mm 3 mps 756 mmHg 84%

25 Octubre, Domingo

Tiempo Temperatura Precipitaciones Viento Presión Humedad
00:00 +8°C° 0 mm 2 mps 756 mmHg 86%
01:00 +8°C° 0 mm 2 mps 756 mmHg 87%
02:00 +8°C° 0 mm 2 mps 756 mmHg 87%
03:00 +8°C° 0 mm 1 mps 756 mmHg 87%
04:00 +8°C° 0 mm 1 mps 756 mmHg 87%
05:00 +8°C° 0 mm 1 mps 756 mmHg 87%
06:00 +8°C° 0 mm 1 mps 757 mmHg 86%
07:00 +9°C° 0 mm 1 mps 756 mmHg 82%
08:00 +10°C° 0 mm 1 mps 756 mmHg 78%
09:00 +10°C° 0 mm 2 mps 756 mmHg 74%
10:00 +12°C° 0 mm 2 mps 756 mmHg 69%
11:00 +12°C° 0 mm 3 mps 756 mmHg 65%
12:00 +13°C° 0 mm 3 mps 756 mmHg 61%
13:00 +12°C° 0.5 mm 3 mps 755 mmHg 69%
14:00 +11°C° 0.5 mm 3 mps 755 mmHg 78%
15:00 +10°C° 0.5 mm 4 mps 754 mmHg 86%
16:00 +10°C° 0.2 mm 4 mps 754 mmHg 86%
17:00 +11°C° 0.2 mm 4 mps 754 mmHg 86%
18:00 +11°C° 0.2 mm 4 mps 754 mmHg 86%
19:00 +11°C° 0.1 mm 4 mps 753 mmHg 87%
20:00 +11°C° 0.1 mm 4 mps 753 mmHg 89%
21:00 +11°C° 0.1 mm 4 mps 752 mmHg 90%
22:00 +12°C° 0.3 mm 4 mps 752 mmHg 89%
23:00 +12°C° 0.3 mm 5 mps 751 mmHg 88%

26 Octubre, Lunes

Tiempo Temperatura Precipitaciones Viento Presión Humedad
00:00 +13°C° 0.3 mm 5 mps 751 mmHg 87%
01:00 +12°C° 0.4 mm 5 mps 750 mmHg 87%
02:00 +12°C° 0.4 mm 4 mps 750 mmHg 88%
03:00 +12°C° 0.4 mm 4 mps 750 mmHg 89%
04:00 +11°C° 0.1 mm 4 mps 750 mmHg 89%
05:00 +11°C° 0.1 mm 3 mps 749 mmHg 89%
06:00 +10°C° 0.1 mm 3 mps 749 mmHg 89%
07:00 +10°C° 0 mm 3 mps 749 mmHg 84%
08:00 +11°C° 0 mm 3 mps 749 mmHg 80%
09:00 +11°C° 0 mm 3 mps 749 mmHg 75%
10:00 +10°C° 0.2 mm 4 mps 749 mmHg 78%
11:00 +10°C° 0.2 mm 4 mps 749 mmHg 81%
12:00 +10°C° 0.2 mm 4 mps 749 mmHg 83%
13:00 +10°C° 0.1 mm 4 mps 750 mmHg 82%
14:00 +10°C° 0.1 mm 4 mps 750 mmHg 81%
15:00 +10°C° 0.1 mm 4 mps 750 mmHg 79%
16:00 +10°C° 0.1 mm 4 mps 750 mmHg 82%
17:00 +9°C° 0.1 mm 5 mps 751 mmHg 84%
18:00 +9°C° 0.1 mm 5 mps 751 mmHg 87%
19:00 +9°C° 0 mm 6 mps 751 mmHg 86%
20:00 +9°C° 0 mm 6 mps 752 mmHg 85%
21:00 +9°C° 0 mm 7 mps 752 mmHg 84%
22:00 +8°C° 0.2 mm 7 mps 753 mmHg 83%
23:00 +7°C° 0.2 mm 8 mps 754 mmHg 82%
Mostrar más

Necesitamos Su Consentimiento

Meteoprog y nuestros Proveedores de Servicios pueden almacenar y acceder a sus datos personales como cookies, identificadores de dispositivo u otras tecnologías similares de su dispositivo y procesar dichos datos para personalizar contenido y anuncios, además de ofrecer funciones de redes sociales y analizar el tráfico.

  • Almacenar y/o acceder a información en su dispositivo

    Se puede almacenar o acceder a cookies, identificadores de dispositivo u otra información de su dispositivo para los fines anteriormente indicados.

  • Anuncios y contenido personalizados, medición de anuncios y contenido, percepciones del público, y desarrollo de productos

    Los anuncios y el contenido pueden personalizarse en base a su perfil. Se pueden añadir más datos para personalizar mejor los anuncios y contenidos. Se puede medir el rendimiento de los anuncios y contenidos. Se puede obtener la percepción sobre el público que ha visto los anuncios y contenidos. Dichos datos pueden usarse para desarrollar o mejorar la experiencia del usuario, sistemas y software.

Al hacer clic en ‘Estoy De Acuerdo’ usted permitirá el uso de las cookies, identificadores de dispositivo, balizas web u otras tecnologías similares indicadas. Su configuración puede cambiarse desde el navegador de su dispositivo.

Para ciertos fines, los intereses legítimos pueden ser considerados por encima del consentimiento. Puede leer más sobre ello en nuestra Política de Privacidad y Cookies.